Вернуться в каталог

DELTA 1 DEB

АктивенLEO
NORAD 14528·DEBRIS·🇺🇸 United States

Запущен Jul 14, 1977 с Cape Canaveral Space Force Station

Loading…

Ближайшие Пролёты (ближайшие 24 часа)

TLE

СвежийSource: Space-Track

Эпоха: Sep 13, 2026, 17:07 UTC

1 14528U 77065FP  26256.71354190  .00000185  00000-0  64481-3 0  9996
2 14528  28.0748  89.1275 0316255 207.2114 151.1498 12.46629779587149

Отслеживайте DELTA 1 DEB в реальном времени с AllMySat

Download on the App Store